Regional Weather Roundup
Issued by NWS

Home | Current Version | Previous Version | Text Only | Print | Product List | Glossary Off
Versions: 1 2 3 4 5 6 7 8 9 10 11 12 13 14 15 16 17 18 19 20 21 22 23 24 25 26 27 28 29 30 31 32 33 34 35 36 37 38 39 40 41 42 43 44 45 46 47 48 49 50

994
ASUS43 KLMK 280002
RWRKY
KENTUCKY REGIONAL WEATHER ROUNDUP
NATIONAL WEATHER SERVICE LOUISVILLE KY
800 PM EDT SAT AUG 27 2016

NOTE "FAIR" INDICATES FEW OR NO CLOUDS BELOW 12,000 FEET
WITH NO SIGNIFICANT WEATHER AND/OR OBSTRUCTIONS TO VISIBILITY.

KYZ001>023-026-027-061>063-070>075-280100-
WESTERN AND SOUTH CENTRAL KENTUCKY

CITY           SKY/WX    TMP DP  RH WIND       PRES   REMARKS
PADUCAH        CLEAR     83  74  74 CALM      30.02F
HENDERSON      CLOUDY    88  73  62 SE3       30.03S HX  96
OWENSBORO      CLOUDY    86  76  71 S5        30.06R HX  96
HOPKINSVILLE   CLOUDY    74  72  92 CALM      30.05F
BOWLING GREEN  CLOUDY    82  74  76 CALM      30.07S
GLASGOW        PTCLDY    83  77  82 N3        30.09R HX  91
$$

KYZ024-025-028>034-038-045-046-053-280100-
NORTH CENTRAL KENTUCKY

CITY           SKY/WX    TMP DP  RH WIND       PRES   REMARKS
LOUISVILLE/SDF MOCLDY    86  73  65 SE9       30.08R HX  93
LOUISVILLE/LOU CLOUDY    85  74  69 SE7       30.09R HX  92
FORT KNOX      CLOUDY    77  70  78 E2        30.08R
$$

KYZ035>037-039>044-047>052-055>060-089>105-280100-
NORTHEAST KENTUCKY

CITY           SKY/WX    TMP DP  RH WIND       PRES   REMARKS
LEXINGTON      CLOUDY    79  70  74 NW3       30.13R
COVINGTON      PTCLDY    78  73  84 SE7       30.11R
FRANKFORT      MOCLDY    83  72  69 E6        30.10S
$$

KYZ054-064>069-076>088-106>120-280100-
SOUTHEAST KENTUCKY

CITY           SKY/WX    TMP DP  RH WIND       PRES   REMARKS
JACKSON        PTCLDY    84  74  71 S3        30.14R HX  91
LONDON         PTCLDY    84  71  65 CALM      30.13R
SOMERSET       CLOUDY    81  70  69 CALM      30.13R
MIDDLESBORO    CLOUDY    82  72  71 NW5       30.12R
MONTICELLO     CLOUDY   N/A N/A N/A N12       30.13R
$$





USA.gov is the U.S. government's official web portal to all federal, state and local government web resources and services.